When you browse on this site, cookies collect data to enhance your experience and personalize the content and advertising you see.
Visit our Privacy Policy to learn more. By continuing to use the site, you agree to this use of cookies and data.
  • In Austria
  • List of Countries
  • For 7 days
  • Water Temperature
  • Weather Map
  • News
  • Weather Widgets
  • user-avatar
    Login

    Hourly Weather Manta

    Today, 18 January, Saturday

    Time Temperature Precipitation Wind Pressure Humidity
    00:00 +15°C° 0.4 mm 1 mps 585 mmHg 98%
    01:00 +15°C° 0.4 mm 1 mps 585 mmHg 98%
    02:00 +15°C° 0.3 mm 1 mps 584 mmHg 98%
    03:00 +14°C° 0.3 mm 1 mps 584 mmHg 98%
    04:00 +14°C° 0.3 mm 1 mps 584 mmHg 98%
    05:00 +14°C° 0.1 mm 1 mps 584 mmHg 97%
    06:00 +14°C° 0.1 mm 1 mps 584 mmHg 97%
    07:00 +14°C° 0.1 mm 1 mps 585 mmHg 96%
    08:00 +15°C° 0.1 mm 1 mps 585 mmHg 92%
    09:00 +16°C° 0.1 mm 2 mps 586 mmHg 88%
    10:00 +17°C° 0.1 mm 2 mps 587 mmHg 84%
    11:00 +18°C° 0.3 mm 2 mps 587 mmHg 80%
    12:00 +19°C° 0.3 mm 2 mps 586 mmHg 76%
    13:00 +20°C° 0.3 mm 3 mps 586 mmHg 72%
    14:00 +21°C° 0.1 mm 3 mps 585 mmHg 70%
    15:00 +21°C° 0.1 mm 2 mps 585 mmHg 68%
    16:00 +21°C° 0.1 mm 2 mps 585 mmHg 66%
    17:00 +19°C° 0.1 mm 2 mps 584 mmHg 77%
    18:00 +16°C° 0.1 mm 1 mps 583 mmHg 87%
    19:00 +14°C° 0.1 mm 1 mps 583 mmHg 98%
    20:00 +14°C° 0.2 mm 1 mps 583 mmHg 97%
    21:00 +15°C° 0.2 mm 1 mps 584 mmHg 97%
    22:00 +15°C° 0.2 mm 1 mps 585 mmHg 96%
    23:00 +15°C° 0.3 mm 1 mps 584 mmHg 96%

    Tomorrow, 19 January, Sunday

    Time Temperature Precipitation Wind Pressure Humidity
    00:00 +15°C° 0.3 mm 1 mps 584 mmHg 96%
    01:00 +13°C° 0.3 mm 0 mps 584 mmHg 96%
    02:00 +13°C° 0 mm 0 mps 584 mmHg 96%
    03:00 +13°C° 0 mm 0 mps 583 mmHg 97%
    04:00 +12°C° 0 mm 0 mps 583 mmHg 97%
    05:00 +13°C° 0 mm 0 mps 583 mmHg 96%
    06:00 +14°C° 0 mm 1 mps 584 mmHg 95%
    07:00 +14°C° 0 mm 1 mps 584 mmHg 95%
    08:00 +15°C° 0.2 mm 1 mps 585 mmHg 90%
    09:00 +18°C° 0.2 mm 1 mps 586 mmHg 85%
    10:00 +19°C° 0.2 mm 1 mps 587 mmHg 80%
    11:00 +19°C° 0.3 mm 2 mps 586 mmHg 76%
    12:00 +20°C° 0.3 mm 2 mps 586 mmHg 72%
    13:00 +21°C° 0.3 mm 3 mps 586 mmHg 68%
    14:00 +21°C° 0.1 mm 2 mps 585 mmHg 67%
    15:00 +21°C° 0.1 mm 2 mps 584 mmHg 66%
    16:00 +21°C° 0.1 mm 2 mps 584 mmHg 66%
    17:00 +19°C° 0.1 mm 2 mps 583 mmHg 76%
    18:00 +18°C° 0.1 mm 1 mps 583 mmHg 87%
    19:00 +15°C° 0.1 mm 1 mps 582 mmHg 97%
    20:00 +14°C° 0.1 mm 0 mps 583 mmHg 97%
    21:00 +14°C° 0.1 mm 0 mps 584 mmHg 97%
    22:00 +14°C° 0.1 mm 0 mps 585 mmHg 97%
    23:00 +14°C° 0.1 mm 0 mps 584 mmHg 97%

    Day after tomorrow, 20 January, Monday

    Time Temperature Precipitation Wind Pressure Humidity
    00:00 +14°C° 0.1 mm 0 mps 584 mmHg 96%
    01:00 +14°C° 0.1 mm 0 mps 584 mmHg 96%
    02:00 +13°C° 0 mm 0 mps 583 mmHg 96%
    03:00 +13°C° 0 mm 0 mps 583 mmHg 96%
    04:00 +12°C° 0 mm 0 mps 582 mmHg 96%
    05:00 +12°C° 0 mm 0 mps 583 mmHg 95%
    06:00 +13°C° 0 mm 0 mps 583 mmHg 94%
    07:00 +13°C° 0 mm 0 mps 584 mmHg 92%
    08:00 +16°C° 0 mm 1 mps 585 mmHg 81%
    09:00 +20°C° 0 mm 1 mps 587 mmHg 70%
    10:00 +22°C° 0 mm 1 mps 588 mmHg 59%
    11:00 +23°C° 0.2 mm 2 mps 588 mmHg 59%
    12:00 +23°C° 0.2 mm 2 mps 587 mmHg 59%
    13:00 +24°C° 0.2 mm 2 mps 587 mmHg 59%
    14:00 +23°C° 0.3 mm 2 mps 586 mmHg 64%
    15:00 +21°C° 0.3 mm 2 mps 585 mmHg 70%
    16:00 +20°C° 0.3 mm 2 mps 584 mmHg 76%
    17:00 +20°C° 0.6 mm 1 mps 584 mmHg 83%
    18:00 +18°C° 0.6 mm 1 mps 584 mmHg 90%
    19:00 +15°C° 0.6 mm 0 mps 583 mmHg 98%
    20:00 +15°C° 0.2 mm 0 mps 584 mmHg 98%
    21:00 +15°C° 0.2 mm 0 mps 584 mmHg 98%
    22:00 +14°C° 0.2 mm 0 mps 585 mmHg 98%
    23:00 +14°C° 0.1 mm 0 mps 584 mmHg 97%

    21 January, Tuesday

    Time Temperature Precipitation Wind Pressure Humidity
    00:00 +14°C° 0.1 mm 0 mps 584 mmHg 97%
    01:00 +14°C° 0.1 mm 0 mps 584 mmHg 97%
    02:00 +14°C° 0.1 mm 0 mps 583 mmHg 97%
    03:00 +14°C° 0.1 mm 0 mps 583 mmHg 97%
    04:00 +13°C° 0.1 mm 0 mps 583 mmHg 97%
    05:00 +14°C° 0.1 mm 0 mps 583 mmHg 96%
    06:00 +14°C° 0.1 mm 0 mps 584 mmHg 95%
    07:00 +14°C° 0.1 mm 0 mps 584 mmHg 94%
    08:00 +16°C° 0.4 mm 0 mps 585 mmHg 89%
    09:00 +19°C° 0.4 mm 1 mps 586 mmHg 85%
    10:00 +20°C° 0.4 mm 1 mps 587 mmHg 80%
    11:00 +21°C° 1 mm 1 mps 586 mmHg 81%
    12:00 +21°C° 1 mm 1 mps 586 mmHg 81%
    13:00 +21°C° 1 mm 1 mps 585 mmHg 82%
    14:00 +20°C° 1.3 mm 1 mps 585 mmHg 85%
    15:00 +20°C° 1.3 mm 1 mps 584 mmHg 88%
    16:00 +19°C° 1.3 mm 1 mps 583 mmHg 91%
    17:00 +18°C° 2 mm 1 mps 583 mmHg 93%
    18:00 +15°C° 2 mm 0 mps 583 mmHg 95%
    19:00 +15°C° 2 mm 0 mps 583 mmHg 98%
    20:00 +15°C° 1.4 mm 0 mps 583 mmHg 97%
    21:00 +14°C° 1.4 mm 0 mps 584 mmHg 97%
    22:00 +14°C° 1.4 mm 0 mps 584 mmHg 96%
    23:00 +14°C° 0.5 mm 0 mps 584 mmHg 96%

    22 January, Wednesday

    Time Temperature Precipitation Wind Pressure Humidity
    00:00 +14°C° 0.5 mm 0 mps 584 mmHg 96%
    01:00 +15°C° 0.5 mm 1 mps 583 mmHg 96%
    02:00 +15°C° 0.3 mm 1 mps 583 mmHg 96%
    03:00 +15°C° 0.3 mm 1 mps 583 mmHg 96%
    04:00 +15°C° 0.3 mm 1 mps 583 mmHg 95%
    05:00 +15°C° 0.2 mm 1 mps 583 mmHg 95%
    06:00 +15°C° 0.2 mm 1 mps 584 mmHg 94%
    07:00 +15°C° 0.2 mm 1 mps 584 mmHg 94%
    08:00 +16°C° 0.3 mm 1 mps 585 mmHg 92%
    09:00 +18°C° 0.3 mm 1 mps 586 mmHg 90%
    10:00 +17°C° 0.3 mm 0 mps 586 mmHg 88%
    11:00 +17°C° 0.7 mm 0 mps 586 mmHg 86%
    12:00 +19°C° 0.7 mm 1 mps 586 mmHg 85%
    13:00 +20°C° 0.7 mm 1 mps 585 mmHg 83%
    14:00 +19°C° 1 mm 1 mps 585 mmHg 85%
    15:00 +19°C° 1 mm 1 mps 584 mmHg 87%
    16:00 +18°C° 1 mm 1 mps 583 mmHg 90%
    17:00 +18°C° 0.4 mm 1 mps 583 mmHg 91%
    18:00 +16°C° 0.4 mm 1 mps 583 mmHg 92%
    19:00 +15°C° 0.4 mm 1 mps 583 mmHg 94%
    20:00 +15°C° 0.1 mm 1 mps 583 mmHg 94%
    21:00 +15°C° 0.1 mm 1 mps 584 mmHg 94%
    22:00 +14°C° 0.1 mm 1 mps 584 mmHg 94%
    23:00 +14°C° 0 mm 1 mps 584 mmHg 94%

    23 January, Thursday

    Time Temperature Precipitation Wind Pressure Humidity
    00:00 +14°C° 0 mm 1 mps 583 mmHg 94%
    01:00 +14°C° 0 mm 1 mps 583 mmHg 94%
    02:00 +14°C° 0 mm 1 mps 583 mmHg 94%
    03:00 +14°C° 0 mm 1 mps 582 mmHg 94%
    04:00 +14°C° 0 mm 1 mps 582 mmHg 94%
    05:00 +14°C° 0 mm 1 mps 583 mmHg 93%
    06:00 +14°C° 0 mm 1 mps 583 mmHg 92%
    07:00 +15°C° 0 mm 1 mps 584 mmHg 91%
    08:00 +16°C° 0 mm 1 mps 585 mmHg 86%
    09:00 +19°C° 0 mm 1 mps 586 mmHg 80%
    10:00 +20°C° 0 mm 1 mps 587 mmHg 74%
    11:00 +21°C° 0.3 mm 1 mps 587 mmHg 70%
    12:00 +22°C° 0.3 mm 1 mps 587 mmHg 66%
    13:00 +24°C° 0.3 mm 1 mps 587 mmHg 62%
    14:00 +23°C° 1.3 mm 1 mps 585 mmHg 70%
    15:00 +21°C° 1.3 mm 1 mps 584 mmHg 78%
    16:00 +20°C° 1.3 mm 1 mps 583 mmHg 86%
    17:00 +19°C° 0.9 mm 1 mps 583 mmHg 90%
    18:00 +16°C° 0.9 mm 0 mps 583 mmHg 94%
    19:00 +14°C° 0.9 mm 0 mps 583 mmHg 98%
    20:00 +14°C° 0.3 mm 0 mps 583 mmHg 97%
    21:00 +14°C° 0.3 mm 0 mps 584 mmHg 97%
    22:00 +14°C° 0.3 mm 0 mps 584 mmHg 97%
    23:00 +13°C° 0 mm 0 mps 584 mmHg 96%
    Show more